TimePST,TemperatureF,Dew PointF,Humidity,Sea Level PressureIn,VisibilityMPH,Wind Direction,Wind SpeedMPH,Gust SpeedMPH,PrecipitationIn,Events,Conditions,WindDirDegrees,DateUTC
12:25 AM,46.4,44.6,93,29.64,5.0,Calm,Calm,-,0.08,Rain,Rain,0,2012-12-04 08:25:00
12:32 AM,46.4,44.6,93,29.64,4.0,NE,3.5,-,0.10,Rain,Heavy Rain,40,2012-12-04 08:32:00
12:53 AM,46.9,44.1,90,29.63,4.0,East,3.5,-,0.17,Rain,Rain,100,2012-12-04 08:53:00
1:53 AM,50.0,46.0,86,29.63,6.0,South,12.7,-,0.04,Rain,Light Rain,180,2012-12-04 09:53:00
2:05 AM,50.0,46.4,87,29.64,6.0,South,12.7,-,0.01,Rain,Light Rain,180,2012-12-04 10:05:00
2:45 AM,50.0,46.4,87,29.66,6.0,South,5.8,-,0.02,Rain,Light Rain,190,2012-12-04 10:45:00
2:53 AM,50.0,48.0,93,29.66,7.0,Calm,Calm,-,0.02,Rain,Light Rain,0,2012-12-04 10:53:00
3:48 AM,50.0,48.2,94,29.68,10.0,WSW,8.1,-,0.01,,Overcast,250,2012-12-04 11:48:00
3:53 AM,50.0,48.0,93,29.68,10.0,WSW,8.1,-,0.01,,Overcast,240,2012-12-04 11:53:00
4:53 AM,52.0,48.9,89,29.70,10.0,SSW,8.1,-,0.00,,Overcast,210,2012-12-04 12:53:00
5:53 AM,53.1,48.9,86,29.72,10.0,ENE,3.5,-,N/A,,Overcast,70,2012-12-04 13:53:00
6:53 AM,55.0,50.0,83,29.75,10.0,SW,9.2,-,N/A,,Overcast,230,2012-12-04 14:53:00
7:53 AM,55.0,50.0,83,29.77,10.0,SSW,13.8,-,N/A,,Mostly Cloudy,210,2012-12-04 15:53:00
8:53 AM,55.0,51.1,86,29.81,10.0,SW,6.9,-,N/A,,Overcast,220,2012-12-04 16:53:00
9:02 AM,55.4,51.8,88,29.82,9.0,SW,8.1,-,N/A,,Overcast,230,2012-12-04 17:02:00
9:12 AM,53.6,51.8,94,29.82,2.0,SW,8.1,-,0.01,Rain,Rain,230,2012-12-04 17:12:00
9:27 AM,53.6,51.8,94,29.83,4.0,SSW,9.2,-,0.02,Rain,Light Rain,210,2012-12-04 17:27:00
9:53 AM,54.0,52.0,93,29.83,2.5,SSW,6.9,-,0.03,Rain,Light Rain,210,2012-12-04 17:53:00
10:01 AM,53.6,51.8,94,29.84,4.0,SSW,5.8,-,0.00,Rain,Light Rain,210,2012-12-04 18:01:00
10:42 AM,53.6,51.8,94,29.84,3.0,South,5.8,-,0.01,Rain,Light Rain,180,2012-12-04 18:42:00
10:53 AM,54.0,51.1,90,29.84,3.0,South,5.8,-,0.02,Rain,Light Rain,180,2012-12-04 18:53:00
11:16 AM,53.6,51.8,94,29.84,9.0,SSW,4.6,-,0.00,,Overcast,200,2012-12-04 19:16:00
11:31 AM,53.6,51.8,94,29.83,2.5,SW,4.6,-,0.01,Rain,Light Rain,230,2012-12-04 19:31:00
11:53 AM,53.1,51.1,93,29.83,1.8,WSW,5.8,-,0.05,Rain,Rain,250,2012-12-04 19:53:00
12:11 PM,53.6,51.8,94,29.82,2.0,SW,4.6,-,0.04,Rain,Light Rain,230,2012-12-04 20:11:00
12:14 PM,53.6,51.8,94,29.82,3.0,SW,4.6,-,0.04,Rain,Light Rain,230,2012-12-04 20:14:00
12:29 PM,53.6,51.8,94,29.81,2.5,SW,3.5,-,0.06,Rain,Light Rain,230,2012-12-04 20:29:00
12:37 PM,53.6,51.8,94,29.81,1.8,SW,4.6,-,0.06,Rain,Light Rain,230,2012-12-04 20:37:00
12:44 PM,53.6,51.8,94,29.81,2.0,WSW,4.6,-,0.07,Rain,Light Rain,240,2012-12-04 20:44:00
12:53 PM,53.1,51.1,93,29.81,1.8,SW,3.5,-,0.09,Rain,Light Rain,230,2012-12-04 20:53:00
12:58 PM,53.6,51.8,94,29.81,3.0,SW,4.6,-,0.00,Rain,Light Rain,220,2012-12-04 20:58:00
1:08 PM,53.6,51.8,94,29.82,2.5,SW,5.8,-,0.02,Rain,Light Rain,230,2012-12-04 21:08:00
1:21 PM,53.6,50.0,88,29.82,1.5,WSW,6.9,-,0.05,Rain,Rain,240,2012-12-04 21:21:00
1:42 PM,53.6,50.0,88,29.81,2.5,SW,6.9,-,0.10,Rain,Light Rain,220,2012-12-04 21:42:00
1:53 PM,53.1,50.0,89,29.82,2.0,SW,8.1,-,0.12,Rain,Light Rain,230,2012-12-04 21:53:00
1:58 PM,53.6,50.0,88,29.82,3.0,SW,5.8,-,0.01,Rain,Rain,230,2012-12-04 21:58:00
2:53 PM,53.1,50.0,89,29.81,10.0,SW,5.8,-,0.03,Rain,Light Rain,230,2012-12-04 22:53:00
3:38 PM,51.8,48.2,88,29.81,7.0,SW,4.6,-,0.01,Rain,Light Rain,230,2012-12-04 23:38:00
3:53 PM,51.1,48.0,89,29.82,5.0,WSW,6.9,-,0.02,Rain,Light Rain,240,2012-12-04 23:53:00
4:14 PM,51.8,48.2,88,29.82,4.0,WSW,6.9,-,0.03,Rain,Light Rain,240,2012-12-05 00:14:00
4:34 PM,51.8,48.2,88,29.81,6.0,SW,3.5,-,0.04,Rain,Light Rain,220,2012-12-05 00:34:00
4:53 PM,50.0,48.0,93,29.81,7.0,WSW,4.6,-,0.05,Rain,Light Rain,240,2012-12-05 00:53:00
5:53 PM,50.0,48.0,93,29.80,9.0,WSW,3.5,-,0.02,Rain,Light Rain,240,2012-12-05 01:53:00
6:33 PM,50.0,48.2,94,29.81,2.5,West,4.6,-,0.08,Rain,Heavy Rain,260,2012-12-05 02:33:00
6:45 PM,50.0,48.2,94,29.81,3.0,SSW,3.5,-,0.12,Rain,Heavy Rain,210,2012-12-05 02:45:00
6:53 PM,50.0,48.0,93,29.82,2.5,WSW,4.6,-,0.14,Rain,Rain,240,2012-12-05 02:53:00
7:10 PM,50.0,48.2,94,29.81,6.0,SW,3.5,-,0.03,Rain,Light Rain,230,2012-12-05 03:10:00
7:53 PM,51.1,48.0,89,29.83,10.0,SW,9.2,-,0.04,Rain,Light Rain,230,2012-12-05 03:53:00
8:53 PM,50.0,46.0,86,29.87,10.0,WSW,11.5,24.2,0.00,Rain,Light Rain,240,2012-12-05 04:53:00
9:53 PM,48.9,44.1,83,29.90,10.0,SW,10.4,-,0.00,,Mostly Cloudy,230,2012-12-05 05:53:00
10:53 PM,48.0,44.1,86,29.94,10.0,SW,8.1,-,N/A,,Overcast,220,2012-12-05 06:53:00
11:53 PM,48.0,42.1,80,29.99,9.0,SW,6.9,-,0.00,Rain,Light Rain,230,2012-12-05 07:53:00